Hourly Weather Alindao

Today, 4 December, Friday

Time Temperature Precipitation Wind Pressure Humidity
00:00 +23°C° 0 mm 0 mps 719 mmHg 37%
01:00 +22°C° 0 mm 0 mps 718 mmHg 42%
02:00 +22°C° 0 mm 0 mps 719 mmHg 43%
03:00 +21°C° 0 mm 0 mps 719 mmHg 44%
04:00 +21°C° 0 mm 0 mps 719 mmHg 46%
05:00 +22°C° 0 mm 0 mps 720 mmHg 45%
06:00 +25°C° 0 mm 1 mps 720 mmHg 44%
07:00 +26°C° 0 mm 1 mps 721 mmHg 40%
08:00 +30°C° 0 mm 1 mps 721 mmHg 34%
09:00 +33°C° 0 mm 1 mps 721 mmHg 28%
10:00 +36°C° 0 mm 1 mps 722 mmHg 22%
11:00 +39°C° 0 mm 1 mps 721 mmHg 20%
12:00 +40°C° 0 mm 1 mps 720 mmHg 18%
13:00 +41°C° 0 mm 1 mps 719 mmHg 17%
14:00 +40°C° 0 mm 1 mps 719 mmHg 19%
15:00 +39°C° 0 mm 1 mps 718 mmHg 20%
16:00 +38°C° 0 mm 2 mps 718 mmHg 21%
17:00 +34°C° 0 mm 1 mps 718 mmHg 25%
18:00 +31°C° 0 mm 1 mps 718 mmHg 28%
19:00 +27°C° 0 mm 0 mps 719 mmHg 32%
20:00 +26°C° 0 mm 0 mps 719 mmHg 35%
21:00 +25°C° 0 mm 0 mps 719 mmHg 37%
22:00 +24°C° 0 mm 0 mps 719 mmHg 40%
23:00 +24°C° 0 mm 0 mps 719 mmHg 42%

Tomorrow, 5 December, Saturday

Time Temperature Precipitation Wind Pressure Humidity
00:00 +23°C° 0 mm 0 mps 719 mmHg 43%
01:00 +23°C° 0 mm 0 mps 719 mmHg 45%
02:00 +22°C° 0 mm 0 mps 718 mmHg 47%
03:00 +22°C° 0 mm 0 mps 718 mmHg 49%
04:00 +22°C° 0 mm 0 mps 718 mmHg 50%
05:00 +22°C° 0 mm 0 mps 719 mmHg 49%
06:00 +25°C° 0 mm 1 mps 720 mmHg 48%
07:00 +26°C° 0 mm 1 mps 721 mmHg 47%
08:00 +29°C° 0 mm 1 mps 721 mmHg 41%
09:00 +32°C° 0 mm 1 mps 721 mmHg 35%
10:00 +35°C° 0 mm 1 mps 721 mmHg 30%
11:00 +36°C° 0 mm 1 mps 720 mmHg 27%
12:00 +39°C° 0 mm 1 mps 720 mmHg 24%
13:00 +41°C° 0 mm 1 mps 719 mmHg 22%
14:00 +39°C° 0 mm 1 mps 719 mmHg 22%
15:00 +37°C° 0 mm 1 mps 718 mmHg 23%
16:00 +36°C° 0 mm 1 mps 717 mmHg 24%
17:00 +32°C° 0 mm 0 mps 717 mmHg 28%
18:00 +29°C° 0 mm 0 mps 718 mmHg 32%
19:00 +27°C° 0 mm 0 mps 718 mmHg 37%
20:00 +26°C° 0 mm 0 mps 718 mmHg 38%
21:00 +26°C° 0 mm 0 mps 719 mmHg 39%
22:00 +25°C° 0 mm 0 mps 719 mmHg 40%
23:00 +25°C° 0 mm 0 mps 719 mmHg 43%

Day after tomorrow, 6 December, Sunday

Time Temperature Precipitation Wind Pressure Humidity
00:00 +24°C° 0 mm 0 mps 719 mmHg 45%
01:00 +23°C° 0 mm 0 mps 719 mmHg 47%
02:00 +23°C° 0 mm 0 mps 719 mmHg 49%
03:00 +25°C° 0 mm 1 mps 719 mmHg 51%
04:00 +24°C° 0 mm 1 mps 719 mmHg 52%
05:00 +23°C° 0 mm 0 mps 720 mmHg 52%
06:00 +24°C° 0 mm 0 mps 720 mmHg 51%
07:00 +25°C° 0 mm 0 mps 721 mmHg 50%
08:00 +29°C° 0 mm 0 mps 721 mmHg 44%
09:00 +32°C° 0 mm 0 mps 721 mmHg 38%
10:00 +36°C° 0 mm 0 mps 721 mmHg 32%
11:00 +39°C° 0 mm 1 mps 720 mmHg 29%
12:00 +40°C° 0 mm 1 mps 720 mmHg 26%
13:00 +40°C° 0 mm 1 mps 719 mmHg 23%
14:00 +39°C° 0 mm 1 mps 718 mmHg 23%
15:00 +39°C° 0 mm 1 mps 717 mmHg 23%
16:00 +37°C° 0 mm 1 mps 717 mmHg 23%
17:00 +34°C° 0 mm 1 mps 717 mmHg 28%
18:00 +32°C° 0 mm 1 mps 717 mmHg 32%
19:00 +27°C° 0 mm 0 mps 718 mmHg 37%
20:00 +26°C° 0 mm 0 mps 718 mmHg 38%
21:00 +26°C° 0 mm 0 mps 718 mmHg 40%
22:00 +25°C° 0 mm 0 mps 718 mmHg 41%
23:00 +26°C° 0 mm 1 mps 718 mmHg 44%

7 December, Monday

Time Temperature Precipitation Wind Pressure Humidity
00:00 +26°C° 0 mm 1 mps 718 mmHg 47%
01:00 +25°C° 0 mm 1 mps 718 mmHg 50%
02:00 +25°C° 0 mm 1 mps 719 mmHg 54%
03:00 +24°C° 0 mm 1 mps 719 mmHg 59%
04:00 +21°C° 0 mm 0 mps 719 mmHg 63%
05:00 +23°C° 0 mm 0 mps 719 mmHg 60%
06:00 +24°C° 0 mm 0 mps 720 mmHg 58%
07:00 +25°C° 0 mm 0 mps 721 mmHg 55%
08:00 +29°C° 0 mm 0 mps 721 mmHg 46%
09:00 +33°C° 0 mm 0 mps 721 mmHg 38%
10:00 +37°C° 0 mm 0 mps 722 mmHg 29%
11:00 +40°C° 0 mm 1 mps 721 mmHg 26%
12:00 +40°C° 0 mm 1 mps 720 mmHg 22%
13:00 +40°C° 0 mm 2 mps 719 mmHg 19%
14:00 +40°C° 0 mm 2 mps 718 mmHg 19%
15:00 +39°C° 0 mm 2 mps 718 mmHg 18%
16:00 +39°C° 0 mm 2 mps 717 mmHg 18%
17:00 +35°C° 0 mm 1 mps 718 mmHg 20%
18:00 +32°C° 0 mm 1 mps 718 mmHg 23%
19:00 +27°C° 0 mm 0 mps 718 mmHg 25%
20:00 +26°C° 0 mm 0 mps 718 mmHg 27%
21:00 +26°C° 0 mm 0 mps 719 mmHg 28%
22:00 +25°C° 0 mm 0 mps 719 mmHg 29%
23:00 +24°C° 0 mm 0 mps 719 mmHg 32%

8 December, Tuesday

Time Temperature Precipitation Wind Pressure Humidity
00:00 +25°C° 0 mm 1 mps 719 mmHg 35%
01:00 +25°C° 0 mm 1 mps 719 mmHg 38%
02:00 +24°C° 0 mm 1 mps 719 mmHg 40%
03:00 +22°C° 0 mm 0 mps 719 mmHg 43%
04:00 +21°C° 0 mm 0 mps 719 mmHg 46%
05:00 +22°C° 0 mm 0 mps 720 mmHg 45%
06:00 +24°C° 0 mm 0 mps 721 mmHg 45%
07:00 +25°C° 0 mm 0 mps 721 mmHg 44%
08:00 +28°C° 0 mm 0 mps 721 mmHg 38%
09:00 +32°C° 0 mm 0 mps 722 mmHg 32%
10:00 +36°C° 0 mm 0 mps 722 mmHg 26%
11:00 +39°C° 0 mm 1 mps 721 mmHg 24%
12:00 +40°C° 0 mm 1 mps 720 mmHg 21%
13:00 +40°C° 0 mm 2 mps 719 mmHg 18%
14:00 +39°C° 0 mm 2 mps 719 mmHg 19%
15:00 +39°C° 0 mm 2 mps 718 mmHg 19%
16:00 +37°C° 0 mm 1 mps 718 mmHg 19%
17:00 +35°C° 0 mm 1 mps 718 mmHg 22%
18:00 +32°C° 0 mm 1 mps 718 mmHg 26%
19:00 +27°C° 0 mm 0 mps 718 mmHg 29%
20:00 +26°C° 0 mm 0 mps 718 mmHg 31%
21:00 +25°C° 0 mm 0 mps 718 mmHg 32%
22:00 +25°C° 0 mm 0 mps 719 mmHg 34%
23:00 +24°C° 0 mm 0 mps 719 mmHg 35%

9 December, Wednesday

Time Temperature Precipitation Wind Pressure Humidity
00:00 +24°C° 0 mm 0 mps 719 mmHg 37%
01:00 +23°C° 0 mm 0 mps 718 mmHg 38%
02:00 +23°C° 0 mm 0 mps 719 mmHg 39%
03:00 +22°C° 0 mm 0 mps 719 mmHg 40%
04:00 +21°C° 0 mm 0 mps 719 mmHg 42%
05:00 +22°C° 0 mm 0 mps 720 mmHg 42%
06:00 +24°C° 0 mm 0 mps 720 mmHg 42%
07:00 +25°C° 0 mm 0 mps 721 mmHg 42%
08:00 +28°C° 0 mm 0 mps 721 mmHg 37%
09:00 +33°C° 0 mm 1 mps 721 mmHg 32%
10:00 +37°C° 0 mm 1 mps 721 mmHg 27%
11:00 +39°C° 0 mm 1 mps 720 mmHg 25%
12:00 +40°C° 0 mm 1 mps 720 mmHg 22%
13:00 +41°C° 0 mm 1 mps 719 mmHg 20%
14:00 +40°C° 0 mm 1 mps 718 mmHg 21%
15:00 +39°C° 0 mm 1 mps 718 mmHg 22%
16:00 +37°C° 0 mm 1 mps 717 mmHg 23%
17:00 +34°C° 0 mm 1 mps 717 mmHg 29%
18:00 +32°C° 0 mm 1 mps 717 mmHg 35%
19:00 +29°C° 0 mm 1 mps 718 mmHg 41%
20:00 +28°C° 0 mm 1 mps 718 mmHg 44%
21:00 +28°C° 0 mm 1 mps 718 mmHg 48%
22:00 +27°C° 0 mm 1 mps 719 mmHg 51%
23:00 +26°C° 0 mm 1 mps 718 mmHg 54%
Show more